Simultaneous Nadir Overpasses (SNOs) Predictions

Prediction of SNOs between METOP-B and TERRA Satellite Orbit:

Table of predicted SNOs for the next 14.0 days since TLE Epoch: 1/6/2024
Index Date (METOP-B) Time (METOP-B) Lat,Lon (METOP-B) SZA (METOP-B ) Date (TERRA) Time (TERRA) Lat,Lon (TERRA) SZA (TERRA ) Distance(km) Time Diff (sec)
1 01/07/2024 22:22:26 80.51,-129.12 103.64 01/07/2024 22:23:00 80.51,-129.21 103.64 1.74 34
2 01/07/2024 23:13:04 -80.58, 39.20 76.24 01/07/2024 23:12:19 -80.58, 39.24 76.25 0.82 45
3 01/10/2024 13:43:32 -80.50,-179.54 76.77 01/10/2024 13:43:46 -80.50,-179.49 76.76 0.96 14
4 01/10/2024 14:34:09 80.59, -10.99 103.40 01/10/2024 14:33:05 80.58, -10.98 103.37 0.36 64
5 01/13/2024 04:13:58 -80.43, -37.98 77.31 01/13/2024 04:15:11 -80.43, -38.02 77.29 0.83 73
6 01/13/2024 05:04:34 80.55, 130.85 102.90 01/13/2024 05:04:29 80.55, 130.74 102.88 2.19 5
7 01/15/2024 19:35:02 80.45, -88.00 102.26 01/15/2024 19:35:55 80.46, -87.99 102.27 0.40 53
8 01/15/2024 20:25:39 -80.56, 80.72 77.57 01/15/2024 20:25:14 -80.55, 80.58 77.59 2.68 25
9 01/18/2024 10:56:06 -80.49,-137.83 78.21 01/18/2024 10:56:39 -80.49,-137.93 78.21 1.80 33



Historial Predications of SNOs between METOP-B and TERRA
